Find Starlink 34123

NORAD ID: 63891 Int'l Des: 2025-095 Owner: SPXS Country: US Constellation: starlink operational
LEOCIRCULAR

現在のビュー

3D地球を読み込み中...

About Starlink 34123

Starlink 34123 (NORAD 63891) is a starlink constellation satellite (v2 mini) launched May 10, 2025 by SPXS of US. It operates in LEO, CIRCULAR orbit with a mass of 575.00 kg.

次回通過

Passes for default location (London). Set your location on the main map for personalized predictions.

高度履歴

Loading altitude history...

軌道要素

1 63891U 25095B 26262.10207965 .00012722 00000-0 47084-3 0 9996
2 63891 43.0006 164.2844 0001635 268.1334 91.9330 15.27591838 77360
Epoch: Sep 19, 2026 • Age: 52 hours

現在のステータス

高度 484.5 km
遠地点 / 近地点 N/A
速度 7.62 km/s
衛星直下点 -12.59°S, 45.89°E
打ち上げ日 May 10, 2025
運用期間 1.3 years
タイプ internet

技術仕様

分類 Payload
質量 575.00 kg
乾燥質量 530.00 kg
長さ 0.30 m
スパン 29.00 m
形状 ? Box + pan
製造者 SPXS
バスタイプ Starlink V2MO
フェーズステータス In Orbit
所有者/国 SPXS/US

Most Searched